Change the Weather History Date:

Friday, March 22, 2013

  Actual Average (KISN) Record (KISN)
Temperature  
Mean Temperature 12 °F 32 °F  
Max Temperature 15 °F 44 °F 84 °F (1910)
Min Temperature 8 °F 21 °F -26 °F (1899)
Degree Days  
Heating Degree Days 54 33  
Month to date heating degree days 834  
Since 1 July heating degree days 7602  
Cooling Degree Days 0 0  
Month to date cooling degree days 0  
Year to date cooling degree days 0  
Moisture  
Dew Point 10 °F    
Average Humidity 85    
Maximum Humidity 92    
Minimum Humidity 79    
Precipitation  
Precipitation 0.41 in 0.02 in 0.52 in (2011)
Month to date precipitation 0.48  
Year to date precipitation 1.46  
Sea Level Pressure  
Sea Level Pressure 29.97 in    
Wind  
Wind Speed 12 mph (East)    
Max Wind Speed 18 mph    
Max Gust Speed -    
Visibility 6 miles    
Events Snow    
T = Trace of Precipitation, MM = Missing Value Source: NWS Daily Summary

Daily Weather History Graph

Daily Weather History Graph

Search for Another Location

Airport or City:

Trip Planner

Search our weather history database for the weather conditions in past years. The results will help you decide how hot, cold, wet, or windy it might be!

Date:

Astronomy

Mar. 22, 2013 Rise Set
Actual Time 7:51 AM CDT 8:09 PM CDT
Civil Twilight 7:19 AM CDT 8:41 PM CDT
Nautical Twilight 6:42 AM CDT 9:18 PM CDT
Astronomical Twilight 6:03 AM CDT 9:57 PM CDT
Moon 3:18 PM CDT (3/22) 5:14 AM CDT (3/22)
Length of Visible Light 13h 21m
Length of Day
12h 18m
Waxing Gibbous, 77% of the Moon is Illuminated
Mar 22
Waxing Gibbous
Mar 27
Full
Apr 2
Last Quarter
Apr 10
New
Apr 18
First Quarter

Hourly Weather History & Observations

Time (CDT) Temp. Windchill Dew Point Humidity Pressure Visibility Wind Dir Wind Speed Gust Speed Precip Events Conditions
12:15 AM 14.0 °F -1.4 °F 8.6 °F 79% 29.95 in 10.0 mi ESE 15.0 mph - N/A   Overcast
12:35 AM 14.0 °F -3.0 °F 8.6 °F 79% 29.94 in 10.0 mi SE 18.4 mph - N/A   Overcast
12:55 AM 14.0 °F -3.0 °F 8.6 °F 79% 29.94 in 10.0 mi SE 18.4 mph - N/A   Overcast
1:15 AM 14.0 °F -1.4 °F 8.6 °F 79% 29.95 in 10.0 mi SE 15.0 mph - N/A   Overcast
1:35 AM 14.0 °F -0.2 °F 8.6 °F 79% 29.95 in 10.0 mi SE 12.7 mph - N/A   Overcast
1:55 AM 14.0 °F 1.2 °F 8.6 °F 79% 29.95 in 10.0 mi ESE 10.4 mph - N/A   Overcast
2:15 AM 14.0 °F 2.9 °F 8.6 °F 79% 29.96 in 10.0 mi ESE 8.1 mph - N/A   Overcast
2:35 AM 14.0 °F 2.9 °F 8.6 °F 79% 29.95 in 9.0 mi ESE 8.1 mph - N/A Snow Light Snow
2:55 AM 14.0 °F 2.0 °F 10.4 °F 86% 29.95 in 5.0 mi ESE 9.2 mph - N/A Snow Light Snow
3:15 AM 14.0 °F 3.9 °F 10.4 °F 86% 29.95 in 10.0 mi East 6.9 mph - N/A Snow Light Snow
3:35 AM 14.0 °F 1.2 °F 10.4 °F 86% 29.94 in 8.0 mi ESE 10.4 mph - N/A Snow Light Snow
3:55 AM 14.0 °F 6.5 °F 10.4 °F 86% 29.94 in 10.0 mi ENE 4.6 mph - N/A   Overcast
4:15 AM 14.0 °F -0.2 °F 10.4 °F 86% 29.93 in 10.0 mi ESE 12.7 mph - N/A   Overcast
4:35 AM 14.0 °F 5.1 °F 10.4 °F 86% 29.93 in 10.0 mi East 5.8 mph - N/A   Overcast
4:55 AM 14.0 °F 5.1 °F 10.4 °F 86% 29.93 in 10.0 mi ENE 5.8 mph - N/A   Overcast
5:15 AM 14.0 °F 0.5 °F 10.4 °F 86% 29.93 in 10.0 mi East 11.5 mph - N/A   Overcast
5:35 AM 12.2 °F -3.1 °F 8.6 °F 85% 29.92 in 10.0 mi East 13.8 mph - N/A   Mostly Cloudy
5:55 AM 14.0 °F 2.0 °F 10.4 °F 86% 29.92 in 10.0 mi East 9.2 mph - N/A   Overcast
6:15 AM 14.0 °F 1.2 °F 10.4 °F 86% 29.92 in 10.0 mi East 10.4 mph - N/A Snow Light Snow
6:35 AM 12.2 °F -1.8 °F 8.6 °F 85% 29.92 in 10.0 mi East 11.5 mph - N/A   Overcast
6:55 AM 12.2 °F -1.8 °F 8.6 °F 85% 29.92 in 10.0 mi East 11.5 mph - N/A   Overcast
7:15 AM 12.2 °F -1.8 °F 8.6 °F 85% 29.92 in 10.0 mi East 11.5 mph - N/A Snow Light Snow
7:35 AM 12.2 °F -1.0 °F 8.6 °F 85% 29.92 in 9.0 mi East 10.4 mph - N/A Snow Light Snow
7:55 AM 12.2 °F 0.7 °F 8.6 °F 85% 29.93 in 8.0 mi East 8.1 mph - N/A Snow Light Snow
8:15 AM 14.0 °F 3.9 °F 10.4 °F 86% 29.93 in 3.0 mi East 6.9 mph - N/A Snow Light Snow
8:35 AM 14.0 °F 3.9 °F 10.4 °F 86% 29.93 in 5.0 mi East 6.9 mph - N/A Snow Light Snow
8:55 AM 12.2 °F 0.7 °F 8.6 °F 85% 29.93 in 2.0 mi East 8.1 mph - 0.01 in Snow Light Snow
9:15 AM 12.2 °F -0.2 °F 8.6 °F 85% 29.93 in 3.0 mi East 9.2 mph - N/A Snow Light Snow
9:35 AM 12.2 °F -3.1 °F 8.6 °F 85% 29.93 in 3.0 mi East 13.8 mph - 0.01 in Snow Light Snow
9:55 AM 10.4 °F -6.6 °F 8.6 °F 92% 29.93 in 2.0 mi East 16.1 mph - 0.01 in Snow Light Snow
10:15 AM 10.4 °F -6.0 °F 6.8 °F 85% 29.93 in 2.0 mi East 15.0 mph - N/A Snow Light Snow
10:35 AM 10.4 °F -6.6 °F 6.8 °F 85% 29.93 in 1.8 mi East 16.1 mph - 0.01 in Snow Light Snow
10:55 AM 10.4 °F -7.2 °F 6.8 °F 85% 29.93 in 1.5 mi East 17.3 mph - 0.03 in Snow Light Snow
11:15 AM 10.4 °F -6.0 °F 6.8 °F 85% 29.93 in 1.5 mi East 15.0 mph - 0.01 in Snow Light Snow
11:35 AM 12.2 °F -2.5 °F 8.6 °F 85% 29.93 in 1.0 mi East 12.7 mph - 0.04 in Snow Light Snow
11:55 AM 12.2 °F -2.5 °F 8.6 °F 85% 29.94 in 2.5 mi East 12.7 mph - 0.06 in Snow Light Snow
12:15 PM 14.0 °F 2.0 °F 10.4 °F 86% 29.94 in 1.0 mi East 9.2 mph - 0.02 in Snow Light Snow
12:35 PM 14.0 °F -0.2 °F 10.4 °F 86% 29.94 in 0.8 mi East 12.7 mph - 0.08 in Snow Light Snow
12:55 PM 14.0 °F 1.2 °F 10.4 °F 86% 29.95 in 1.0 mi East 10.4 mph - 0.12 in Snow Light Snow
1:15 PM 14.0 °F -0.2 °F 10.4 °F 86% 29.95 in 1.0 mi East 12.7 mph - 0.02 in Snow Light Snow
1:35 PM 14.0 °F -0.2 °F 10.4 °F 86% 29.95 in 1.2 mi East 12.7 mph - 0.05 in Snow Light Snow
1:55 PM 14.0 °F -0.8 °F 10.4 °F 86% 29.95 in 1.5 mi East 13.8 mph - 0.07 in Snow Light Snow
2:15 PM 14.0 °F -0.8 °F 10.4 °F 86% 29.95 in 1.5 mi East 13.8 mph - 0.01 in Snow Light Snow
2:35 PM 14.0 °F -0.2 °F 10.4 °F 86% 29.95 in 1.5 mi East 12.7 mph - 0.03 in Snow Light Snow
2:55 PM 14.0 °F -1.4 °F 10.4 °F 86% 29.95 in 1.2 mi East 15.0 mph - 0.05 in Snow Light Snow
3:15 PM 15.8 °F 2.1 °F 10.4 °F 79% 29.95 in 1.8 mi East 12.7 mph - N/A Snow Light Snow
3:35 PM 15.8 °F 1.4 °F 12.2 °F 86% 29.96 in 1.5 mi East 13.8 mph - 0.02 in Snow Light Snow
3:55 PM 15.8 °F 2.1 °F 12.2 °F 86% 29.96 in 1.5 mi East 12.7 mph - 0.03 in Snow Light Snow
4:15 PM 15.8 °F 2.1 °F 12.2 °F 86% 29.97 in 1.5 mi East 12.7 mph - 0.01 in Snow Light Snow
4:35 PM 15.8 °F 2.1 °F 12.2 °F 86% 29.97 in 1.8 mi East 12.7 mph - 0.02 in Snow Light Snow
4:55 PM 15.8 °F 1.4 °F 10.4 °F 79% 29.98 in 2.0 mi East 13.8 mph - 0.03 in Snow Light Snow
5:15 PM 15.8 °F 1.4 °F 10.4 °F 79% 29.98 in 3.0 mi East 13.8 mph - N/A Snow Light Snow
5:35 PM 15.8 °F 0.9 °F 10.4 °F 79% 29.99 in 4.0 mi East 15.0 mph - N/A Snow Light Snow
5:55 PM 15.8 °F 2.1 °F 10.4 °F 79% 30.00 in 5.0 mi East 12.7 mph - N/A   Overcast
6:15 PM 14.0 °F -1.4 °F 10.4 °F 86% 30.00 in 4.0 mi East 15.0 mph - N/A Snow Light Snow
6:35 PM 14.0 °F -1.4 °F 10.4 °F 86% 30.00 in 3.0 mi East 15.0 mph - N/A   Overcast
6:55 PM 14.0 °F -0.2 °F 10.4 °F 86% 30.01 in 10.0 mi East 12.7 mph - N/A   Overcast
7:15 PM 14.0 °F -0.2 °F 10.4 °F 86% 30.02 in 4.0 mi East 12.7 mph - N/A Snow Light Snow
7:35 PM 14.0 °F 0.5 °F 10.4 °F 86% 30.02 in 3.0 mi East 11.5 mph - N/A Snow Light Snow
7:55 PM 14.0 °F 0.5 °F 10.4 °F 86% 30.02 in 4.0 mi East 11.5 mph - N/A Snow Light Snow
8:15 PM 12.2 °F -1.8 °F 8.6 °F 85% 30.02 in 8.0 mi East 11.5 mph - N/A Snow Light Snow
8:35 PM 10.4 °F -4.1 °F 6.8 °F 85% 30.03 in 10.0 mi East 11.5 mph - N/A   Overcast
8:55 PM 8.6 °F -5.5 °F 6.8 °F 92% 30.04 in 10.0 mi East 10.4 mph - N/A   Overcast
9:15 PM 10.4 °F -3.3 °F 6.8 °F 85% 30.04 in 10.0 mi East 10.4 mph - N/A Snow Light Snow
9:35 PM 12.2 °F -2.5 °F 8.6 °F 85% 30.05 in 10.0 mi East 12.7 mph - N/A   Overcast
9:55 PM 12.2 °F -1.8 °F 10.4 °F 92% 30.05 in 10.0 mi East 11.5 mph - N/A Snow Light Snow
10:15 PM 14.0 °F -0.2 °F 10.4 °F 86% 30.06 in 10.0 mi East 12.7 mph - N/A Snow Light Snow
10:35 PM 14.0 °F -0.2 °F 10.4 °F 86% 30.06 in 10.0 mi East 12.7 mph - N/A Snow Light Snow
10:55 PM 14.0 °F 0.5 °F 10.4 °F 86% 30.06 in 10.0 mi East 11.5 mph - N/A   Overcast
11:15 PM 14.0 °F 0.5 °F 10.4 °F 86% 30.07 in 10.0 mi East 11.5 mph - N/A Snow Light Snow
11:35 PM 12.2 °F -0.2 °F 8.6 °F 85% 30.07 in 9.0 mi East 9.2 mph - N/A Snow Light Snow
11:55 PM 10.4 °F -1.5 °F 6.8 °F 85% 30.07 in 10.0 mi East 8.1 mph - N/A Snow Light Snow